When you browse on this site, cookies collect data to enhance your experience and personalize the content and advertising you see.
Visit our Privacy Policy to learn more. By continuing to use the site, you agree to this use of cookies and data.
  • In United Kingdom
  • List of Countries
  • For 7 days
  • Water Temperature
  • Weather Map
  • Weather Widgets
  • user-avatar
    Login

    Hourly Weather Sharlaivka

    Today, 18 September, Wednesday

    Time Temperature Precipitation Wind Pressure Humidity
    00:00 +12°C° 0 mm 2 mps 741 mmHg 54%
    01:00 +12°C° 0 mm 2 mps 741 mmHg 53%
    02:00 +11°C° 0 mm 3 mps 741 mmHg 51%
    03:00 +11°C° 0 mm 4 mps 740 mmHg 59%
    04:00 +11°C° 0 mm 4 mps 740 mmHg 67%
    05:00 +10°C° 0 mm 5 mps 739 mmHg 75%
    06:00 +10°C° 0.1 mm 6 mps 739 mmHg 72%
    07:00 +11°C° 0.1 mm 7 mps 739 mmHg 69%
    08:00 +12°C° 0.1 mm 8 mps 739 mmHg 67%
    09:00 +11°C° 0.6 mm 8 mps 739 mmHg 67%
    10:00 +11°C° 0.6 mm 8 mps 739 mmHg 68%
    11:00 +11°C° 0.6 mm 7 mps 740 mmHg 68%
    12:00 +11°C° 0 mm 9 mps 740 mmHg 58%
    13:00 +12°C° 0 mm 10 mps 740 mmHg 49%
    14:00 +13°C° 0 mm 12 mps 741 mmHg 39%
    15:00 +12°C° 0 mm 11 mps 741 mmHg 41%
    16:00 +11°C° 0 mm 10 mps 741 mmHg 43%
    17:00 +9°C° 0 mm 10 mps 742 mmHg 46%
    18:00 +8°C° 0 mm 9 mps 742 mmHg 53%
    19:00 +7°C° 0 mm 8 mps 743 mmHg 60%
    20:00 +6°C° 0 mm 7 mps 743 mmHg 66%
    21:00 +8°C° 0 mm 7 mps 744 mmHg 67%
    22:00 +8°C° 0 mm 7 mps 744 mmHg 67%
    23:00 +8°C° 0 mm 7 mps 745 mmHg 67%

    Tomorrow, 19 September, Thursday

    Time Temperature Precipitation Wind Pressure Humidity
    00:00 +7°C° 0 mm 6 mps 745 mmHg 70%
    01:00 +7°C° 0 mm 6 mps 746 mmHg 73%
    02:00 +7°C° 0 mm 5 mps 746 mmHg 76%
    03:00 +6°C° 0 mm 5 mps 746 mmHg 80%
    04:00 +6°C° 0 mm 5 mps 747 mmHg 83%
    05:00 +5°C° 0 mm 5 mps 747 mmHg 87%
    06:00 +7°C° 0 mm 5 mps 747 mmHg 82%
    07:00 +8°C° 0 mm 5 mps 748 mmHg 77%
    08:00 +9°C° 0 mm 5 mps 748 mmHg 72%
    09:00 +10°C° 0 mm 5 mps 749 mmHg 66%
    10:00 +12°C° 0 mm 5 mps 749 mmHg 60%
    11:00 +13°C° 0 mm 6 mps 749 mmHg 54%
    12:00 +13°C° 0.1 mm 6 mps 749 mmHg 53%
    13:00 +14°C° 0.1 mm 6 mps 749 mmHg 51%
    14:00 +14°C° 0.1 mm 6 mps 749 mmHg 50%
    15:00 +13°C° 0 mm 5 mps 749 mmHg 52%
    16:00 +13°C° 0 mm 5 mps 749 mmHg 53%
    17:00 +12°C° 0 mm 4 mps 749 mmHg 55%
    18:00 +11°C° 0 mm 3 mps 750 mmHg 62%
    19:00 +9°C° 0 mm 2 mps 750 mmHg 69%
    20:00 +8°C° 0 mm 1 mps 750 mmHg 77%
    21:00 +8°C° 0 mm 1 mps 750 mmHg 79%
    22:00 +8°C° 0 mm 1 mps 750 mmHg 82%
    23:00 +7°C° 0 mm 1 mps 750 mmHg 84%

    Day after tomorrow, 20 September, Friday

    Time Temperature Precipitation Wind Pressure Humidity
    00:00 +6°C° 0 mm 2 mps 749 mmHg 85%
    01:00 +6°C° 0 mm 2 mps 749 mmHg 86%
    02:00 +5°C° 0 mm 2 mps 749 mmHg 87%
    03:00 +5°C° 0 mm 2 mps 749 mmHg 88%
    04:00 +5°C° 0 mm 2 mps 749 mmHg 89%
    05:00 +5°C° 0 mm 2 mps 749 mmHg 90%
    06:00 +5°C° 0 mm 3 mps 748 mmHg 84%
    07:00 +8°C° 0 mm 3 mps 748 mmHg 77%
    08:00 +9°C° 0 mm 3 mps 748 mmHg 71%
    09:00 +11°C° 0.1 mm 3 mps 748 mmHg 64%
    10:00 +12°C° 0.1 mm 4 mps 748 mmHg 58%
    11:00 +14°C° 0.1 mm 4 mps 748 mmHg 51%
    12:00 +14°C° 0.7 mm 4 mps 747 mmHg 52%
    13:00 +13°C° 0.7 mm 5 mps 747 mmHg 53%
    14:00 +13°C° 0.7 mm 5 mps 747 mmHg 55%
    15:00 +12°C° 0.6 mm 5 mps 747 mmHg 61%
    16:00 +10°C° 0.6 mm 5 mps 747 mmHg 66%
    17:00 +9°C° 0.6 mm 6 mps 747 mmHg 72%
    18:00 +7°C° 0 mm 5 mps 748 mmHg 75%
    19:00 +6°C° 0 mm 4 mps 748 mmHg 78%
    20:00 +5°C° 0 mm 4 mps 748 mmHg 81%
    21:00 +4°C° 0 mm 4 mps 748 mmHg 83%
    22:00 +4°C° 0 mm 4 mps 748 mmHg 85%
    23:00 +3°C° 0 mm 4 mps 748 mmHg 88%

    21 September, Saturday

    Time Temperature Precipitation Wind Pressure Humidity
    00:00 +3°C° 0 mm 4 mps 749 mmHg 88%
    01:00 +1°C° 0 mm 4 mps 749 mmHg 89%
    02:00 +1°C° 0 mm 4 mps 749 mmHg 90%
    03:00 +1°C° 0 mm 4 mps 749 mmHg 91%
    04:00 0°C° 0 mm 4 mps 749 mmHg 93%
    05:00 0°C° 0 mm 4 mps 749 mmHg 94%
    06:00 +2°C° 0 mm 5 mps 749 mmHg 88%
    07:00 +3°C° 0 mm 5 mps 750 mmHg 81%
    08:00 +5°C° 0 mm 6 mps 750 mmHg 74%
    09:00 +7°C° 0 mm 6 mps 751 mmHg 69%
    10:00 +8°C° 0 mm 7 mps 751 mmHg 63%
    11:00 +10°C° 0 mm 7 mps 751 mmHg 58%
    12:00 +10°C° 0 mm 7 mps 752 mmHg 56%
    13:00 +10°C° 0 mm 6 mps 752 mmHg 54%
    14:00 +11°C° 0 mm 6 mps 752 mmHg 52%
    15:00 +10°C° 0 mm 5 mps 752 mmHg 51%
    16:00 +10°C° 0 mm 5 mps 753 mmHg 51%
    17:00 +11°C° 0 mm 4 mps 753 mmHg 50%
    18:00 +9°C° 0 mm 3 mps 753 mmHg 52%
    19:00 +8°C° 0 mm 3 mps 754 mmHg 53%
    20:00 +5°C° 0 mm 3 mps 754 mmHg 55%
    21:00 +5°C° 0 mm 3 mps 754 mmHg 57%
    22:00 +4°C° 0 mm 3 mps 754 mmHg 60%
    23:00 +5°C° 0 mm 2 mps 754 mmHg 62%

    22 September, Sunday

    Time Temperature Precipitation Wind Pressure Humidity
    00:00 +4°C° 0 mm 3 mps 754 mmHg 65%
    01:00 +3°C° 0 mm 3 mps 754 mmHg 68%
    02:00 +3°C° 0 mm 3 mps 754 mmHg 71%
    03:00 +4°C° 0 mm 4 mps 754 mmHg 69%
    04:00 +4°C° 0 mm 4 mps 753 mmHg 67%
    05:00 +3°C° 0 mm 5 mps 753 mmHg 65%
    06:00 +5°C° 0 mm 6 mps 753 mmHg 60%
    07:00 +8°C° 0 mm 7 mps 752 mmHg 55%
    08:00 +9°C° 0 mm 7 mps 752 mmHg 50%
    09:00 +11°C° 0 mm 8 mps 752 mmHg 47%
    10:00 +13°C° 0 mm 8 mps 752 mmHg 43%
    11:00 +16°C° 0 mm 9 mps 751 mmHg 40%
    12:00 +17°C° 0 mm 9 mps 751 mmHg 40%
    13:00 +18°C° 0 mm 8 mps 750 mmHg 40%
    14:00 +20°C° 0 mm 8 mps 750 mmHg 40%
    15:00 +18°C° 0 mm 8 mps 750 mmHg 41%
    16:00 +18°C° 0 mm 7 mps 750 mmHg 42%
    17:00 +17°C° 0 mm 6 mps 749 mmHg 44%
    18:00 +16°C° 0 mm 6 mps 750 mmHg 47%
    19:00 +15°C° 0 mm 6 mps 750 mmHg 50%
    20:00 +14°C° 0 mm 6 mps 750 mmHg 53%
    21:00 +13°C° 0 mm 5 mps 750 mmHg 57%
    22:00 +12°C° 0 mm 4 mps 750 mmHg 62%
    23:00 +11°C° 0 mm 4 mps 751 mmHg 66%

    23 September, Monday

    Time Temperature Precipitation Wind Pressure Humidity
    00:00 +10°C° 0 mm 3 mps 751 mmHg 71%
    01:00 +10°C° 0 mm 3 mps 751 mmHg 77%
    02:00 +9°C° 0 mm 2 mps 751 mmHg 82%
    03:00 +9°C° 0 mm 2 mps 752 mmHg 85%
    04:00 +8°C° 0 mm 2 mps 752 mmHg 88%
    05:00 +9°C° 0 mm 1 mps 752 mmHg 91%
    06:00 +10°C° 0 mm 1 mps 752 mmHg 84%
    07:00 +12°C° 0 mm 1 mps 752 mmHg 76%
    08:00 +13°C° 0 mm 2 mps 752 mmHg 69%
    09:00 +15°C° 0 mm 2 mps 752 mmHg 63%
    10:00 +17°C° 0 mm 2 mps 752 mmHg 58%
    11:00 +18°C° 0 mm 2 mps 752 mmHg 52%
    12:00 +19°C° 0 mm 2 mps 751 mmHg 48%
    13:00 +20°C° 0 mm 2 mps 751 mmHg 44%
    14:00 +21°C° 0 mm 3 mps 750 mmHg 39%
    15:00 +21°C° 0 mm 2 mps 749 mmHg 40%
    16:00 +20°C° 0 mm 2 mps 749 mmHg 40%
    17:00 +19°C° 0 mm 2 mps 749 mmHg 40%
    18:00 +18°C° 0 mm 2 mps 748 mmHg 41%
    19:00 +16°C° 0 mm 2 mps 748 mmHg 43%
    20:00 +14°C° 0 mm 3 mps 748 mmHg 45%
    21:00 +13°C° 0 mm 3 mps 748 mmHg 45%
    22:00 +13°C° 0 mm 3 mps 747 mmHg 46%
    23:00 +12°C° 0 mm 3 mps 747 mmHg 46%
    Show more